Location: Prague
(50.0830°N, 14.4670°E)
Time: 13:00:42
(UTC+01:00)

XW-2F - Pass Details

Date: 07 December 2021
Orbit: 494 x 515 km, 97.5° (Epoch: 27 January)

Event Time Altitude Azimuth Distance (km) Brightness Sun altitude
Rises 05:35:46 0° 23° (NNE) 2,655 ? -19.9°
Reaches altitude 10° 05:38:09 10° 37° (NE) 1,760 ? -19.6°
Maximum altitude 05:41:21 25° 94° (E) 1,071 ? -19.1°
Drops below altitude 10° 05:44:30 10° 151° (SSE) 1,742 ? -18.6°
Sets 05:46:51 0° 165° (SSE) 2,620 ? -18.2°
